Wetbulb
37.62 35.60 33.77 35.68 36.28 35.51 34.13 32.32 33.18 33.93 37.36 36.63 36.41 35.84 39.36 38.55 36.30 33.96 33.09 33.45 33.25 33.35 34.47 34.32 34.27 34.37 34.99 35.71 36.41 37.06 38.94 39.63 42.88 43.19 42.95 40.76 38.66 38.68 37.72 37.77 38.32 39.54 40.52 41.32
34.56 32.65 37.37 37.18 36.13 35.05 32.87 31.85 31.98 34.56 36.31 36.16 35.19 35.28 38.63 38.15 36.63 35.63 33.94 32.95 32.81 32.80 32.76 32.97 32.98 32.92 32.82 33.14 33.80 35.42 36.85 38.18 40.04 40.29 39.82 39.42 37.61 36.09 35.52 35.66 35.10 35.86 37.08 37.89
32.87 36.40 37.21 36.77 33.88 33.38 32.28 31.79 30.90 33.21 34.29 34.55 33.01 32.78 34.96 35.26 34.95 34.17 34.15 33.59 32.74 32.16 31.45 31.56 31.77 31.10 31.73 31.34 30.98 32.53 34.02 35.76 37.30 38.89 38.58 37.36 36.61 35.56 34.05 33.22 33.01 33.28 34.11 34.62
33.73 36.74 37.04 33.42 33.45 33.86 29.96 34.45 34.20 33.15 31.81 29.17 32.83 27.56 32.77 33.22 32.72 32.48 31.57 31.08 31.11 31.31 31.42 31.38 30.78 30.32 30.42 30.05 30.73 31.13 31.87 32.68 33.56 34.82 34.52 33.76 32.51 30.55 30.76 31.03 31.80 31.97 32.45 32.56
36.26 34.45 33.73 33.62 34.70 35.45 34.20 34.36 33.30 32.78 31.06 29.16 29.68 27.46 30.90 31.92 32.53 31.28 30.85 30.64 30.93 31.14 31.01 30.47 30.11 30.05 29.71 29.77 29.41 29.74 30.83 31.02 31.47 32.06 32.82 31.71 30.12 30.52 30.60 30.65 30.63 30.56 30.86 31.14
35.88 36.45 36.59 36.98 35.22 35.57 35.16 33.51 31.95 30.03 28.97 23.10 29.32 29.62 28.84 30.98 32.91 31.51 31.54 31.19 31.18 30.81 30.69 30.43 30.47 29.94 29.00 29.23 29.47 29.67 29.69 29.18 30.07 30.76 30.71 30.69 29.89 29.45 29.44 29.23 29.09 29.08 29.26 29.39
32.86 34.43 35.05 36.02 33.09 33.27 32.11 31.02 25.48 23.84 22.52 23.85 27.75 26.10 30.59 33.52 33.33 33.71 32.62 31.16 30.87 31.03 30.20 29.57 29.15 28.68 28.64 28.62 28.83 29.39 28.99 27.93 28.71 29.18 29.12 29.28 29.02 29.08 28.47 28.32 28.16 27.99 27.80 27.47
29.73 28.53 34.59 36.58 34.96 32.36 30.60 31.50 26.88 20.85 20.65 24.20 25.99 25.09 31.29 32.25 31.64 32.01 33.07 32.38 31.10 30.17 30.04 29.53 29.27 28.78 28.63 28.94 28.79 28.71 28.40 27.91 28.31 28.70 28.43 28.77 28.69 28.46 27.83 27.76 27.63 27.23 27.30 27.11
28.96 29.90 33.04 33.68 34.34 35.93 30.97 29.01 32.49 26.37 15.56 21.30 27.34 29.57 33.24 31.15 30.75 30.39 30.17 30.35 30.10 30.32 29.96 29.87 29.68 28.76 28.47 28.47 28.55 28.76 28.37 28.14 28.35 28.17 28.25 27.89 28.04 27.60 26.82 26.65 27.17 26.98 27.16 27.32
34.69 29.91 32.67 32.87 34.94 34.30 33.11 34.83 28.34 26.63 18.39 16.02 24.21 26.61 30.21 30.15 30.91 29.59 28.95 29.54 30.10 30.19 29.90 30.18 30.06 29.64 28.81 28.93 29.14 29.07 29.18 28.49 28.13 28.03 27.98 27.48 27.02 26.80 26.43 26.48 25.74 25.67 26.06 26.24
35.79 34.41 30.69 32.62 31.32 31.23 31.29 29.56 30.09 30.42 27.66 21.66 18.33 25.17 31.28 32.76 32.23 30.66 30.40 30.99 31.04 30.86 30.95 31.08 31.01 30.58 29.74 28.85 28.12 28.17 28.11 27.67 27.39 27.44 26.77 26.73 26.11 25.76 25.99 25.87 25.72 25.64 25.70 25.37
37.21 33.57 26.70 29.77 31.79 32.64 32.09 31.57 31.72 27.56 24.31 23.81 24.78 27.76 31.63 31.35 32.34 32.24 31.18 31.68 31.77 32.30 32.13 31.89 31.76 30.66 29.14 28.23 27.43 27.02 27.28 27.37 27.47 26.96 26.33 26.37 25.76 25.71 25.41 25.10 25.10 25.41 24.69 24.82
37.11 31.86 24.81 27.42 30.40 30.24 29.87 30.69 31.16 30.31 28.47 23.51 23.48 25.40 31.05 30.28 30.51 31.37 31.28 31.07 32.18 32.42 31.15 31.33 30.71 29.85 29.40 28.13 27.54 26.86 26.62 26.71 26.80 26.08 25.96 25.33 25.19 24.92 24.80 24.71 24.81 24.59 23.74 23.06
41.35 32.73 30.58 31.11 29.56 31.12 28.41 29.57 30.25 31.25 24.23 26.28 29.27 31.36 28.76 30.84 31.76 30.79 31.12 31.82 31.28 31.46 31.71 30.54 28.71 29.76 28.96 28.45 28.11 26.95 26.36 26.46 26.59 25.56 25.12 24.96 24.79 24.74 24.47 24.31 23.55 22.70 22.08 20.94
39.14 31.88 29.38 30.38 30.14 30.66 30.98 30.05 29.08 29.06 31.47 29.52 31.68 30.69 30.71 32.73 32.38 31.94 31.37 30.84 30.33 30.49 29.86 29.79 29.44 28.57 27.61 27.22 27.41 27.03 26.95 26.16 26.12 25.23 24.90 24.96 25.51 24.34 23.38 22.50 21.22 20.40 19.83 19.44
36.30 32.97 30.04 26.81 29.79 29.21 27.89 29.12 29.66 31.48 31.26 30.30 31.51 30.13 33.71 33.95 31.40 30.48 31.21 30.90 30.05 30.04 30.29 30.35 29.50 28.69 28.04 27.51 27.43 27.03 26.62 26.05 25.80 25.18 25.09 24.73 23.95 22.36 21.33 20.14 19.33 18.51 17.72 16.86
34.56 30.57 30.75 29.56 24.81 28.01 26.69 28.59 28.69 29.61 29.49 32.09 26.48 33.41 29.27 29.46 30.61 30.10 29.92 30.22 30.24 29.37 29.22 29.54 29.30 28.13 27.65 26.49 27.64 26.20 25.63 24.46 24.10 23.33 21.64 21.64 21.29 20.57 19.13 17.72 16.82 16.09 14.81 14.50
32.09 31.54 31.90 19.53 23.02 20.52 25.48 22.01 29.28 31.05 30.24 27.91 27.02 24.30 28.25 30.10 27.87 28.20 28.17 27.98 27.58 28.12 28.27 28.03 28.51 27.55 26.63 26.20 25.09 24.85 24.20 22.86 22.72 22.14 20.57 18.94 18.83 17.06 15.32 14.12 13.50 13.09 12.87 11.97
32.20 30.87 23.37 21.38 21.72 24.11 22.84 21.95 25.19 26.76 25.57 26.98 30.45 28.78 25.69 24.49 23.32 23.22 25.79 26.03 27.67 27.56 27.11 26.48 26.69 26.63 25.03 24.89 24.90 23.27 22.16 22.32 21.54 21.05 20.17 18.39 16.93 13.93 13.14 10.75 10.69 10.81 10.20 9.80
30.05 32.46 30.72 20.79 19.81 18.39 20.41 22.44 25.15 26.45 20.76 22.16 30.33 28.61 20.51 21.43 16.70 21.70 24.67 25.77 26.07 25.86 25.84 26.00 25.50 24.53 23.83 23.78 23.03 21.29 20.65 19.53 19.74 20.35 19.64 16.75 14.19 10.20 9.01 10.54 8.84 9.00 7.38 9.48
22.51 22.80 25.90 22.34 21.04 23.94 21.75 20.79 24.77 18.84 23.15 19.30 21.80 20.88 20.96 21.09 24.46 25.34 25.46 23.73 24.99 25.36 24.99 24.99 24.05 24.22 24.41 22.51 20.37 19.96 18.55 18.40 18.79 17.07 15.27 12.98 11.84 8.89 8.54 6.90 7.45 5.22 4.46 5.92
21.57 22.02 20.25 21.26 19.39 19.23 23.30 22.41 22.07 25.87 22.91 22.22 22.15 23.15 23.20 24.19 24.80 24.63 24.90 25.23 24.55 24.35 24.31 25.64 23.23 23.13 23.11 20.67 19.55 18.89 17.98 17.03 14.78 13.10 11.33 9.40 6.01 8.79 6.83 1.39 2.37 1.42 1.15 0.95
20.54 25.65 22.28 23.96 23.10 23.43 26.22 25.64 26.82 26.52 24.78 23.34 23.78 24.30 24.66 24.09 23.77 24.35 23.83 23.51 24.14 23.95 23.81 23.72 22.73 22.17 21.80 18.23 17.94 18.13 16.76 13.81 10.79 8.79 5.95 3.71 3.59 4.84 3.82 0.14 1.84 2.98 0.89 0.50
19.51 21.42 20.15 21.06 20.72 22.35 24.78 25.44 25.53 25.67 25.36 25.55 25.45 24.81 24.23 24.07 23.79 23.63 23.15 23.31 22.72 21.85 20.50 20.13 17.52 17.52 18.48 15.23 16.53 16.10 12.96 11.04 6.48 4.25 4.39 3.77 2.80 3.87 2.31 5.53 4.54 2.31 1.35 1.91
21.97 21.03 17.13 17.81 20.79 22.28 24.36 25.04 26.41 26.50 25.70 24.42 23.78 24.46 24.42 23.72 22.79 22.70 21.97 21.29 21.03 21.04 19.32 16.87 18.74 19.82 20.00 14.68 12.70 9.92 10.24 8.15 5.48 3.98 4.82 4.46 2.98 2.15 4.30 4.74 4.35 4.59 4.86 3.80
20.98 19.09 18.42 17.18 23.96 24.46 25.39 27.79 26.86 26.11 26.15 24.17 23.46 22.45 22.52 23.50 23.65 22.19 21.37 21.21 20.72 19.91 17.09 15.43 16.21 15.29 15.44 11.14 9.28 5.78 4.97 5.44 4.36 3.88 3.57 3.14 3.39 2.77 3.46 3.13 3.06 8.08 11.89 14.20
MSLP
1019.95 1020.45 1020.47 1020.19 1020.30 1020.60 1020.97 1021.36 1020.99 1020.41 1020.02 1020.13 1020.11 1020.38 1019.92 1021.06 1022.28 1023.51 1024.70 1025.39 1025.94 1026.38 1026.98 1027.04 1026.83 1026.88 1026.49 1026.31 1026.17 1025.63 1024.85 1024.26 1023.50 1023.40 1023.68 1024.34 1025.26 1026.00 1026.20 1026.54 1026.81 1026.57 1026.73 1026.42
1020.68 1020.29 1019.73 1020.17 1020.73 1020.99 1021.34 1021.61 1021.32 1020.85 1020.55 1020.73 1020.59 1020.79 1020.45 1021.08 1022.30 1023.35 1024.32 1025.29 1025.92 1026.52 1026.78 1027.21 1027.09 1026.77 1026.78 1026.59 1026.60 1026.53 1026.33 1025.90 1025.23 1024.88 1025.24 1025.71 1026.49 1027.05 1027.52 1027.67 1027.49 1027.53 1027.50 1027.42
1020.05 1019.59 1019.55 1020.13 1020.81 1021.31 1021.55 1021.64 1021.64 1021.48 1021.28 1021.28 1021.43 1021.18 1020.68 1021.45 1022.54 1023.73 1025.09 1026.17 1026.89 1027.20 1027.66 1027.63 1027.65 1027.44 1027.22 1026.99 1026.71 1026.98 1027.29 1026.93 1026.48 1026.23 1026.14 1026.41 1026.85 1027.70 1028.27 1028.75 1028.71 1028.77 1028.56 1028.57
1020.22 1019.45 1019.67 1020.15 1020.51 1020.83 1021.36 1021.09 1021.46 1021.87 1022.29 1022.41 1022.14 1021.96 1021.13 1021.66 1022.87 1024.22 1025.30 1026.40 1027.01 1027.35 1027.84 1028.11 1028.43 1028.37 1028.29 1027.91 1026.90 1026.71 1026.51 1027.39 1027.65 1027.28 1027.09 1027.34 1027.95 1028.69 1029.74 1029.78 1030.03 1029.73 1029.73 1029.72
1019.30 1019.50 1019.73 1019.99 1019.87 1020.35 1020.67 1020.89 1021.61 1022.13 1022.74 1023.05 1022.91 1023.25 1021.49 1021.95 1022.72 1024.31 1025.58 1026.61 1027.08 1027.21 1027.51 1027.88 1028.49 1028.40 1028.58 1028.45 1027.72 1027.41 1027.46 1027.39 1027.49 1027.75 1028.06 1028.28 1028.75 1029.69 1030.27 1030.24 1030.19 1030.29 1030.43 1030.50
1019.30 1019.17 1019.21 1019.06 1019.56 1019.87 1020.73 1021.30 1022.23 1023.00 1023.40 1023.58 1022.22 1022.52 1021.82 1021.78 1022.09 1023.54 1024.95 1026.26 1027.54 1028.30 1028.59 1029.03 1029.26 1029.50 1029.29 1029.12 1028.85 1028.32 1028.17 1028.31 1028.34 1028.34 1028.58 1028.77 1029.17 1029.94 1030.26 1030.72 1030.85 1031.15 1031.15 1031.12
1019.35 1019.00 1018.72 1018.84 1019.76 1020.39 1020.65 1021.43 1022.83 1023.77 1024.00 1022.93 1022.31 1022.55 1020.47 1020.71 1021.59 1022.57 1023.71 1025.19 1026.44 1027.22 1027.68 1027.99 1028.43 1029.30 1030.16 1029.98 1029.42 1028.83 1028.60 1028.93 1029.18 1029.19 1029.27 1029.57 1029.84 1030.19 1030.66 1031.15 1031.28 1031.49 1031.65 1031.81
1018.98 1018.85 1018.20 1018.18 1018.41 1019.23 1020.20 1020.52 1021.20 1022.19 1023.41 1022.92 1022.55 1021.61 1019.92 1020.17 1021.40 1022.71 1023.84 1024.84 1026.05 1026.88 1027.35 1027.76 1028.39 1029.00 1028.98 1029.58 1029.67 1029.66 1029.52 1029.59 1029.84 1030.00 1030.02 1030.19 1030.41 1030.61 1030.99 1031.39 1031.63 1031.75 1032.06 1032.30
1017.92 1017.74 1017.55 1017.75 1017.95 1018.37 1019.93 1020.29 1020.30 1021.67 1023.68 1023.23 1021.36 1020.43 1019.82 1020.81 1021.74 1022.64 1023.75 1024.92 1025.72 1026.27 1026.76 1027.17 1027.63 1027.94 1028.79 1029.76 1029.70 1029.92 1030.15 1030.19 1030.29 1030.30 1030.54 1030.67 1030.83 1031.07 1031.30 1031.53 1031.89 1032.16 1032.38 1032.40
1016.17 1017.22 1017.59 1017.81 1017.95 1018.58 1018.72 1019.15 1020.36 1021.52 1022.56 1022.51 1021.06 1020.52 1019.83 1020.70 1021.42 1022.61 1023.84 1024.48 1025.10 1025.65 1026.39 1026.99 1027.31 1027.80 1028.19 1029.04 1029.34 1030.05 1030.00 1030.20 1030.34 1030.41 1030.44 1030.86 1031.18 1031.34 1031.58 1031.76 1031.89 1032.10 1032.30 1032.48
1015.87 1016.43 1018.16 1018.15 1017.89 1017.75 1018.94 1019.17 1019.75 1020.21 1021.01 1021.30 1021.16 1019.69 1018.89 1019.59 1020.36 1021.46 1022.53 1023.41 1024.11 1024.74 1025.39 1025.57 1026.35 1027.30 1028.09 1028.71 1029.05 1029.75 1030.03 1030.18 1030.21 1030.46 1030.62 1030.91 1031.26 1031.53 1031.56 1031.83 1032.10 1032.25 1032.41 1032.54
1015.14 1016.09 1017.46 1017.48 1017.48 1017.53 1017.44 1017.79 1018.31 1019.46 1020.33 1020.55 1020.53 1018.76 1018.88 1019.30 1019.89 1020.56 1021.68 1022.63 1023.19 1024.01 1024.51 1024.85 1025.42 1026.68 1027.82 1028.39 1028.83 1029.18 1029.44 1029.70 1029.86 1030.15 1030.51 1030.80 1031.05 1031.37 1031.58 1031.92 1032.18 1032.41 1032.48 1032.73
1014.25 1015.40 1017.10 1017.83 1018.14 1018.01 1017.80 1017.70 1017.91 1018.65 1019.10 1019.16 1020.07 1018.59 1018.82 1019.01 1019.77 1020.41 1021.23 1022.10 1022.73 1023.54 1024.17 1024.74 1025.34 1026.12 1026.79 1027.39 1028.09 1028.48 1028.83 1029.06 1029.39 1029.71 1030.12 1030.78 1031.10 1031.39 1031.75 1031.85 1032.10 1032.31 1032.50 1032.63
1012.61 1013.96 1014.77 1014.80 1015.34 1015.90 1017.43 1017.43 1017.60 1017.86 1018.80 1018.50 1017.56 1017.77 1018.88 1019.16 1019.42 1020.16 1020.66 1021.24 1022.06 1022.70 1023.28 1024.07 1024.83 1025.49 1025.96 1026.69 1027.35 1027.83 1028.21 1028.55 1028.91 1029.38 1029.98 1030.71 1031.12 1031.36 1031.61 1031.82 1032.06 1032.38 1032.50 1032.61
1012.46 1013.85 1014.75 1015.09 1015.17 1015.52 1015.80 1016.36 1017.16 1017.51 1017.55 1017.75 1016.98 1017.21 1017.73 1018.13 1018.74 1019.23 1019.83 1020.83 1021.70 1022.24 1023.02 1023.44 1024.12 1024.62 1025.36 1026.27 1026.73 1027.15 1027.48 1028.05 1028.50 1029.19 1029.73 1030.08 1030.51 1030.89 1031.26 1031.86 1032.16 1032.33 1032.42 1032.45
1012.94 1013.98 1014.67 1015.66 1015.78 1016.29 1016.50 1016.01 1016.20 1016.79 1016.97 1016.91 1017.00 1016.58 1016.84 1017.41 1018.27 1019.19 1019.75 1020.65 1021.27 1021.83 1022.36 1022.81 1023.46 1024.15 1024.93 1025.37 1025.79 1026.34 1026.89 1027.39 1028.02 1028.75 1029.04 1029.54 1030.17 1030.80 1031.34 1031.64 1031.91 1032.23 1032.41 1032.36
1013.50 1014.10 1014.95 1015.85 1016.69 1017.00 1016.96 1014.81 1015.74 1015.99 1015.89 1016.11 1016.94 1015.91 1017.27 1017.95 1018.50 1018.95 1019.70 1020.40 1020.65 1021.32 1021.83 1022.48 1022.91 1023.37 1024.08 1024.62 1025.07 1025.60 1026.08 1026.81 1027.64 1028.31 1028.92 1029.37 1029.97 1030.65 1031.12 1031.57 1032.01 1032.22 1032.17 1031.95
1013.33 1014.17 1015.04 1016.54 1017.26 1016.45 1014.62 1014.54 1014.67 1015.20 1015.37 1016.13 1016.38 1016.68 1017.23 1017.82 1018.24 1018.78 1019.39 1019.90 1020.40 1021.06 1021.51 1022.12 1022.48 1022.97 1023.43 1023.91 1024.44 1025.01 1025.79 1026.54 1027.26 1027.96 1028.63 1029.25 1029.97 1030.63 1031.20 1031.71 1031.94 1031.81 1031.80 1031.91
1013.76 1014.16 1015.41 1016.13 1016.28 1015.02 1014.56 1015.09 1015.14 1014.94 1015.49 1015.97 1016.30 1016.87 1017.71 1018.50 1018.90 1019.05 1019.13 1019.44 1020.00 1020.58 1020.84 1021.41 1022.01 1022.55 1023.11 1023.62 1024.15 1024.87 1025.67 1026.31 1027.09 1027.52 1028.09 1028.79 1029.58 1030.50 1031.09 1031.54 1031.67 1031.71 1031.84 1031.79
1014.62 1014.26 1014.58 1015.88 1015.80 1015.22 1014.11 1014.23 1014.23 1014.73 1015.66 1015.74 1015.98 1016.93 1018.17 1018.84 1019.69 1019.07 1019.09 1019.56 1020.12 1020.49 1020.71 1021.42 1022.01 1022.61 1023.29 1023.65 1024.21 1024.94 1025.48 1025.99 1026.48 1026.89 1027.55 1028.49 1029.46 1030.32 1030.88 1031.21 1031.50 1031.58 1031.77 1031.48
1015.31 1015.20 1014.74 1015.09 1015.33 1014.90 1014.27 1014.39 1014.63 1015.54 1015.69 1015.65 1016.25 1017.16 1018.16 1018.58 1018.15 1018.46 1018.89 1019.50 1019.83 1020.27 1020.73 1021.41 1022.02 1022.48 1022.88 1023.53 1023.90 1024.80 1025.49 1025.99 1025.94 1026.73 1027.61 1028.54 1029.44 1030.11 1030.57 1031.02 1031.29 1031.51 1031.43 1031.27
1014.10 1014.90 1015.26 1015.41 1015.28 1014.76 1013.86 1015.09 1014.96 1014.43 1015.16 1015.58 1016.32 1016.85 1017.51 1017.63 1017.94 1018.30 1018.76 1019.19 1019.75 1020.18 1020.65 1021.22 1021.99 1022.36 1022.48 1023.09 1023.78 1024.36 1025.28 1025.18 1025.94 1026.78 1027.66 1028.60 1029.35 1029.87 1030.39 1030.82 1031.09 1031.17 1031.02 1031.06
1013.94 1012.77 1013.47 1014.03 1013.65 1013.30 1013.23 1013.46 1013.68 1013.97 1014.52 1015.47 1015.76 1016.25 1016.72 1017.37 1017.83 1018.11 1018.75 1019.25 1019.58 1019.92 1020.46 1020.91 1021.59 1021.92 1022.18 1022.77 1023.46 1024.26 1024.40 1025.25 1026.14 1026.99 1027.85 1028.55 1029.14 1029.64 1030.09 1030.53 1030.65 1030.51 1030.49 1030.50
1013.22 1012.78 1012.90 1013.56 1013.63 1013.51 1013.57 1013.56 1013.61 1014.05 1014.36 1014.80 1015.11 1015.68 1016.47 1017.01 1017.56 1018.05 1018.58 1019.02 1019.44 1019.74 1020.26 1020.65 1021.54 1022.09 1022.11 1022.53 1023.15 1023.57 1024.36 1025.11 1026.05 1026.94 1027.72 1028.39 1028.90 1029.36 1029.69 1029.80 1029.86 1029.97 1029.94 1030.05
1012.40 1012.71 1013.03 1013.44 1013.39 1013.53 1013.37 1013.34 1013.47 1013.88 1014.31 1014.96 1015.52 1015.90 1016.27 1016.85 1017.37 1017.85 1018.24 1018.83 1019.15 1019.59 1020.06 1020.61 1020.95 1021.17 1021.40 1021.96 1022.89 1023.59 1024.09 1024.84 1025.90 1026.76 1027.40 1028.01 1028.62 1028.96 1029.09 1029.23 1029.23 1029.23 1029.38 1029.34
1011.67 1012.04 1012.20 1012.01 1011.84 1011.94 1012.05 1012.17 1012.71 1013.70 1014.07 1014.69 1015.61 1016.15 1016.47 1016.73 1017.03 1017.54 1017.94 1018.14 1018.81 1019.41 1019.90 1020.50 1020.82 1021.03 1021.10 1021.89 1022.72 1023.56 1024.04 1024.83 1025.78 1026.68 1027.25 1027.55 1027.87 1028.16 1028.34 1028.54 1028.56 1028.45 1028.07 1027.78
Wind_Speed
2 4 9 13 9 3 6 4 6 3 2 3 6 6 14 7 5 7 7 7 5 5 4 7 8 9 9 12 13 13 10 10 5 5 7 7 8 9 10 10 14 14 13 14
5 8 8 4 4 4 4 4 6 5 3 3 6 9 12 3 3 4 9 8 8 5 5 6 7 8 10 9 11 11 11 10 8 5 5 5 6 9 9 8 13 14 14 14
8 4 7 8 5 6 5 7 4 6 3 2 3 7 6 1 2 4 4 4 4 6 6 5 6 7 7 9 10 10 10 10 9 9 8 7 6 6 7 9 9 12 15 14
6 2 6 4 5 7 5 9 6 4 3 4 1 6 7 0 2 3 5 5 6 6 4 4 4 6 7 7 7 8 8 9 9 9 10 13 9 10 5 8 8 10 13 14
7 7 5 5 8 7 7 6 7 4 4 2 3 1 9 1 5 5 6 6 7 8 8 6 4 4 3 3 6 7 8 11 10 10 10 10 13 9 6 6 11 11 11 13
4 1 6 8 2 5 9 7 6 4 4 1 8 8 5 4 5 4 6 9 6 4 3 3 2 3 3 3 5 7 9 9 9 10 10 12 13 9 8 8 8 7 7 7
1 5 3 4 6 2 1 6 0 2 0 7 1 5 9 6 5 4 11 11 9 8 8 7 8 5 2 2 3 5 8 9 8 10 11 10 11 11 11 8 7 7 6 6
8 5 12 8 8 9 7 7 7 8 5 4 2 8 8 4 2 1 4 11 10 9 7 8 7 6 6 5 4 5 6 9 7 8 9 8 8 7 7 7 6 6 6 6
7 6 1 2 4 6 6 6 2 6 3 3 5 4 4 1 1 3 6 10 12 12 10 10 8 7 6 5 5 6 6 6 6 7 8 8 8 8 8 8 7 6 5 5
7 3 0 3 3 3 5 6 4 2 1 5 4 4 5 6 7 5 7 11 12 9 9 9 9 9 7 6 6 6 6 7 6 6 6 6 7 7 7 6 7 7 6 5
6 4 1 4 8 12 5 3 3 4 5 6 2 6 6 8 9 12 12 13 15 14 13 12 10 8 7 6 6 7 7 7 7 6 6 7 6 6 6 6 5 5 5 5
9 5 5 8 2 1 3 8 8 6 6 3 4 6 0 3 6 8 9 11 11 12 13 11 10 8 8 8 8 9 8 8 8 7 6 6 6 6 6 5 5 4 4 3
11 4 2 6 2 2 6 6 4 4 4 9 6 6 3 4 4 6 8 9 11 10 7 7 7 10 11 10 10 10 9 9 8 7 7 6 6 5 5 5 4 3 3 3
11 6 10 15 7 7 7 7 6 8 5 5 13 12 6 7 9 8 8 8 8 9 12 9 6 9 9 10 10 10 9 8 8 8 7 7 7 6 5 5 4 4 3 3
9 9 6 4 3 4 7 8 11 12 13 12 10 14 8 13 12 12 8 6 8 10 8 8 9 8 7 9 9 9 9 9 8 8 8 9 7 6 6 5 4 3 3 3
3 5 5 4 3 2 4 9 11 15 11 11 11 16 7 7 5 7 8 8 9 7 7 8 6 7 9 11 11 10 10 10 9 10 11 8 7 6 6 5 4 3 4 3
9 8 5 6 3 4 9 15 17 8 7 12 13 17 6 6 7 7 9 9 9 8 8 7 8 7 7 9 9 11 10 7 9 8 6 7 7 7 6 4 4 4 2 1
9 8 4 4 4 9 1 1 7 16 9 6 1 5 8 6 4 4 6 7 7 6 6 6 5 5 6 4 7 6 7 7 8 8 7 7 7 6 5 4 4 2 0 2
1 6 5 7 7 7 4 6 10 10 10 11 13 7 5 5 4 4 5 5 6 8 7 7 6 4 4 6 6 6 6 6 6 9 9 9 8 6 5 4 3 2 1 2
2 2 5 3 5 11 3 2 5 5 8 8 12 8 9 7 3 5 7 5 8 7 5 7 7 5 6 6 6 6 6 6 9 8 8 8 7 6 5 4 4 2 3 2
4 2 8 5 4 6 5 5 4 7 7 4 6 6 9 6 5 6 6 6 6 7 8 5 7 8 9 7 7 7 6 10 5 7 7 7 6 6 4 4 3 3 2 2
8 9 4 2 2 9 8 4 9 6 1 6 6 8 10 6 7 6 6 5 7 8 7 9 7 8 7 7 7 6 8 5 7 7 7 7 6 4 4 4 3 3 0 2
4 7 8 10 7 2 14 3 4 4 7 7 8 8 8 9 7 7 7 8 8 8 8 7 8 8 6 6 7 7 5 8 8 7 6 6 5 5 5 4 4 2 1 1
5 3 4 4 4 4 12 2 2 5 5 6 6 8 9 8 8 7 7 6 7 7 7 7 6 7 8 7 8 6 8 8 8 7 7 6 5 5 4 3 3 2 2 3
4 7 6 0 1 1 6 8 6 7 5 3 3 7 10 8 6 8 6 7 7 7 5 5 9 9 11 6 7 7 8 10 8 6 5 5 4 4 3 3 3 3 4 4
6 7 5 6 9 6 5 10 9 10 10 10 9 6 6 9 10 7 7 6 6 7 4 5 7 6 7 7 7 6 6 8 8 6 5 5 5 4 4 3 3 7 10 12
Wind_Direction
9 118 210 199 197 135 137 174 231 220 258 177 235 254 274 169 144 160 165 162 141 100 41 33 30 13 14 22 16 14 25 18 60 70 84 77 73 65 60 53 46 47 41 43
52 228 211 131 149 148 134 179 248 294 225 163 268 254 259 227 190 193 176 169 156 128 83 38 30 37 33 36 26 22 23 23 39 56 83 80 86 68 67 57 53 50 50 47
167 210 142 144 157 161 201 198 197 220 355 251 329 282 252 242 86 61 73 91 101 121 100 62 41 40 37 43 37 32 19 25 35 64 92 92 85 70 54 44 52 45 53 53
230 259 164 166 198 147 207 194 179 175 101 238 38 283 306 145 176 103 122 145 150 139 126 85 51 35 25 29 55 57 70 53 40 43 69 75 84 91 75 75 67 58 50 51
235 168 170 186 208 171 222 135 160 133 152 81 260 303 266 341 262 189 188 180 180 171 165 144 112 97 60 32 61 62 63 67 67 73 85 94 97 96 96 85 78 67 57 50
243 261 171 198 122 168 149 84 60 61 111 230 224 179 263 214 208 153 167 190 177 160 126 108 83 76 69 46 51 64 75 65 64 79 85 98 106 108 98 84 76 64 62 56
183 218 203 148 92 58 151 109 79 340 316 225 178 144 237 206 189 193 192 176 173 170 168 163 162 155 127 107 101 91 90 84 73 84 84 91 95 95 93 90 86 81 64 49
167 263 168 188 184 177 187 177 168 204 197 224 40 222 254 172 114 294 215 168 165 173 174 178 181 185 172 178 134 104 101 98 86 93 95 95 93 96 97 96 94 83 78 69
167 270 154 131 149 140 197 215 175 99 56 64 225 285 276 176 196 88 144 160 177 185 186 185 182 183 182 185 163 143 124 121 122 121 115 108 111 109 111 107 97 93 85 77
206 139 309 156 108 34 163 166 95 3 212 268 272 262 230 210 208 172 186 191 189 182 185 196 195 192 183 183 163 164 160 157 155 135 125 123 118 114 117 113 100 90 86 71
152 142 201 126 208 174 151 199 70 125 150 190 258 247 216 189 186 195 201 196 189 191 196 194 194 189 181 176 165 177 173 168 161 149 143 139 133 115 99 91 86 79 73 54
194 135 168 204 313 319 196 181 161 164 217 225 172 236 294 236 220 189 195 194 193 195 197 196 190 174 180 183 182 187 185 177 177 164 152 142 135 127 114 114 113 107 97 76
173 194 99 338 331 341 217 192 139 96 68 195 177 247 189 224 197 203 185 197 198 196 195 199 172 190 193 188 190 194 188 190 174 164 157 156 158 155 156 151 141 129 121 109
149 158 193 225 191 142 183 188 178 165 173 186 227 252 214 206 193 199 209 194 186 191 200 198 191 205 194 192 195 196 196 190 176 171 168 178 183 181 173 164 161 164 161 149
149 210 171 230 149 171 182 168 180 195 214 211 244 234 180 202 198 202 191 175 184 208 196 196 204 203 195 198 200 199 200 189 178 176 187 197 183 171 163 168 175 176 165 151
125 198 146 193 154 194 246 213 186 203 215 241 254 256 191 219 117 153 183 179 205 202 199 209 209 197 204 206 207 200 199 196 174 191 204 185 172 158 169 172 182 189 193 167
164 148 142 206 108 109 264 215 190 194 194 193 219 242 164 210 206 204 215 203 204 198 211 197 201 203 205 204 199 201 197 168 187 197 182 176 168 174 174 174 190 206 203 71
145 142 154 130 145 218 234 37 187 204 214 180 117 204 185 194 187 211 191 184 203 204 197 212 203 205 213 193 193 164 159 176 188 199 183 172 170 171 164 184 203 201 117 332
29 142 145 162 205 337 172 197 159 162 246 182 205 201 167 118 77 297 179 188 197 197 200 204 194 179 183 194 187 173 173 177 181 202 194 183 167 166 174 194 200 202 245 289
1 40 194 142 188 205 258 164 136 105 274 220 194 192 147 137 141 235 190 186 216 207 187 195 185 170 179 197 165 163 194 181 208 200 187 154 153 167 179 188 198 178 238 276
120 62 215 174 217 277 212 192 156 136 246 182 166 128 150 184 190 171 154 198 203 197 201 187 173 186 203 170 157 189 172 214 191 146 141 141 154 165 164 174 184 204 259 336
151 158 184 116 211 260 155 60 166 195 21 148 159 177 185 173 166 172 185 198 191 204 185 193 190 214 209 171 166 189 209 161 148 145 146 151 155 175 162 176 199 221 246 315
204 179 177 190 204 345 181 129 198 171 147 190 161 187 174 174 195 184 206 207 211 204 204 195 202 221 209 183 185 196 203 153 148 144 154 161 165 176 173 189 211 229 199 302
261 155 173 114 196 196 208 239 200 180 181 178 191 168 169 183 195 207 218 222 210 210 213 198 178 222 241 198 200 203 156 150 147 160 171 171 179 185 194 203 209 218 257 274
191 130 138 40 247 8 254 226 202 220 212 182 159 182 199 194 205 205 213 214 217 219 216 178 202 217 235 171 192 173 160 152 163 168 172 179 181 191 207 231 234 246 237 221
179 151 163 205 193 168 212 207 189 206 215 193 189 213 216 191 214 194 231 211 204 218 207 207 223 220 226 186 180 166 151 155 153 168 177 188 188 193 201 219 254 259 270 278